sat.trackr.live / text

‹ back to catalog

ONEWEB-0609

NORAD 56070 · 2023-043AA

PAYLOAD ACTIVE UNKNOWN

§ Identity

Operator
Country
UK
Launch date
2023-03-26
Launch site
SRILR
Launch vehicle
Mass (kg)
RCS (m²)

Purposes: comms

External: N2YO · Heavens-Above · Gunter

§ Orbital elements

Epoch: 2026-05-24T19:57:45.416160Z

Period
109.46 min
Inclination
87.8987°
Eccentricity
0.0001874
Mean motion
13.15547336 rev/d
Perigee alt
1,200.4 km
Apogee alt
1,203.2 km
Semi-major
7,579.9 km
B*
-2.6568e-4
RAAN
263.8662°
Arg perigee
102.5057°
Mean anomaly
257.6283°
Rev number
15,336

§ Raw data

ONEWEB-06091 56070U 23043AA  26144.83177565 -.00000087  00000+0 -26568-3 0  99952 56070  87.8987 263.8662 0001874 102.5057 257.6283 13.15547336153369

JSON: /api/v1/satellites/56070 · /tle

For live sub-satellite position, see the globe view (requires WebGL).

§ Visibility from observer

Set your observer location to see the next 7 days of passes ≥ 10°. The values pass through the URL so the page stays shareable.

No JS? Fill the form by hand. The geolocation button needs JavaScript.